period_start,C,m1,H,J0,J1,J2,J3,J4,J5,JA,JB,JC,JD,JJ,JK,JN,#
2017-01-21 00:04:39,0.61,6.92,1.00,15.70,19.95,23.51,15.02,52.52,1015.02,2056.00,1793.36,1746.44,1960.43,600.05,610.25,12.62,0000 0000 0000 0000 000000
2017-01-21 00:09:40,0.62,6.95,1.00,15.67,19.93,23.52,14.98,52.73,1014.92,2056.00,1788.40,1742.81,1956.14,599.98,610.12,12.67,0000 0000 0000 0000 000000
2017-01-21 00:14:41,0.65,6.98,1.00,15.65,19.92,23.51,14.93,52.92,1014.88,2056.00,1783.27,1738.83,1951.64,599.73,609.89,12.72,0000 0000 0000 0000 000000
2017-01-21 00:19:42,0.70,7.01,1.00,15.63,19.89,23.46,14.97,52.76,1014.97,2056.00,1777.90,1734.71,1946.83,600.05,610.32,12.77,0000 0000 0000 0000 000000
2017-01-21 00:24:44,0.67,7.05,1.00,15.62,19.88,23.47,15.09,53.02,1014.97,2056.02,1772.60,1730.52,1942.17,600.25,610.65,12.82,0000 0000 0000 0000 000000
2017-01-21 00:29:45,0.63,7.08,1.00,15.59,19.86,23.45,15.04,52.69,1014.87,2056.04,1767.40,1726.78,1937.71,600.43,610.67,12.87,0000 0000 0000 0000 000000
2017-01-21 00:34:46,0.69,7.11,1.00,15.58,19.84,23.43,15.08,52.83,1014.72,2056.19,1762.07,1722.76,1933.22,600.64,610.88,12.92,0000 0000 0000 0000 000000
2017-01-21 00:39:48,0.72,7.15,1.00,15.58,19.82,23.44,15.08,53.06,1014.62,2056.20,1756.59,1718.51,1928.41,600.34,610.54,12.97,0000 0000 0000 0000 000000
2017-01-21 00:44:49,0.78,7.19,1.00,15.55,19.81,23.40,15.00,53.35,1014.49,2056.59,1751.09,1714.27,1923.51,600.05,610.13,13.02,0000 0000 0000 0000 000000
2017-01-21 00:49:50,0.84,7.23,1.00,15.54,19.79,23.35,15.09,52.98,1014.65,2056.74,1745.09,1708.94,1917.62,600.30,610.54,13.07,0000 0000 0000 0000 000000
2017-01-21 00:54:52,0.65,7.27,1.00,15.52,19.77,23.36,14.99,53.08,1014.46,2056.82,1740.01,1704.97,1913.07,599.93,610.11,13.12,0000 0000 0000 0000 000000
2017-01-21 00:59:53,0.71,7.30,1.00,15.50,19.75,23.35,14.98,52.89,1014.56,2056.95,1734.86,1700.91,1908.55,599.93,610.17,13.17,0000 0000 0000 0000 000000
2017-01-21 01:04:54,0.71,7.33,1.00,15.49,19.73,23.32,14.97,52.94,1014.66,2056.97,1729.50,1696.67,1903.65,599.82,610.30,13.22,0000 0000 0000 0000 000000
2017-01-21 01:09:56,0.70,7.37,1.00,15.46,19.72,23.31,15.07,53.02,1014.50,2056.98,1724.27,1692.58,1898.86,600.20,610.58,13.27,0000 0000 0000 0000 000000
2017-01-21 01:14:57,0.91,7.41,1.00,15.45,19.70,23.31,14.97,53.44,1014.16,2056.99,1717.85,1687.49,1893.00,599.89,610.04,13.32,0000 0000 0000 0000 000000
2017-01-21 01:19:58,0.79,7.46,1.00,15.42,19.68,23.25,15.00,53.30,1014.13,2056.99,1711.96,1682.56,1887.46,599.97,610.25,13.37,0000 0000 0000 0000 000000
2017-01-21 01:25:00,0.77,7.50,1.00,15.40,19.67,23.22,15.04,53.43,1013.85,2056.99,1706.40,1678.17,1882.44,600.09,610.23,13.42,0000 0000 0000 0000 000000
2017-01-21 01:30:02,0.74,7.53,1.00,15.39,19.64,23.21,15.02,53.38,1013.83,2056.99,1700.87,1673.83,1877.51,600.16,610.19,13.48,0000 0000 0000 0000 000000
2017-01-21 01:35:02,0.69,7.57,1.00,15.40,19.63,23.21,15.03,53.01,1013.82,2056.99,1695.51,1669.88,1873.02,599.94,610.03,13.53,0000 0000 0000 0000 000000
2017-01-21 01:40:04,0.71,7.60,1.00,15.38,19.62,23.17,14.96,53.39,1013.71,2056.99,1690.26,1665.98,1868.56,600.33,610.31,13.58,0000 0000 0000 0000 000000
2017-01-21 01:45:05,0.69,7.64,1.00,15.37,19.60,23.16,14.96,53.45,1013.47,2057.01,1684.92,1662.16,1863.99,599.88,609.76,13.63,0000 0000 0000 0000 000000
2017-01-21 01:50:07,0.77,7.68,1.00,15.34,19.59,23.16,15.01,53.48,1013.26,2057.04,1679.39,1658.19,1859.28,600.29,610.11,13.68,0000 0000 0000 0000 000000
2017-01-21 01:55:08,0.80,7.71,1.00,15.32,19.57,23.14,15.03,53.66,1013.23,2057.11,1673.64,1653.76,1854.36,600.02,609.94,13.73,0000 0000 0000 0000 000000
2017-01-21 02:00:09,0.82,7.76,1.00,15.29,19.55,23.14,15.06,53.53,1013.34,2057.55,1668.09,1649.32,1849.59,600.24,610.23,13.78,0000 0000 0000 0000 000000
2017-01-21 02:05:11,0.70,7.79,1.00,15.27,19.54,23.11,15.00,53.73,1013.12,2057.47,1662.97,1645.38,1844.94,599.71,609.55,13.83,0000 0000 0000 0000 000000
2017-01-21 02:10:12,0.98,7.84,1.00,15.25,19.52,23.10,15.00,53.61,1013.25,2057.77,1656.99,1640.43,1839.79,599.74,609.78,13.88,0000 0000 0000 0000 000000
2017-01-21 02:15:14,0.79,7.88,1.00,15.22,19.50,23.08,14.97,53.68,1013.23,2057.91,1651.02,1635.50,1834.57,599.65,609.72,13.93,0000 0000 0000 0000 000000
2017-01-21 02:20:15,0.72,7.92,1.00,15.20,19.49,23.08,15.03,53.58,1013.57,2057.96,1645.88,1631.62,1830.07,599.98,610.32,13.98,0000 0000 0000 0000 000000
2017-01-21 02:25:16,0.83,7.96,1.00,15.16,19.47,23.08,15.04,53.85,1013.22,2057.96,1640.43,1627.18,1825.16,600.36,610.58,14.03,0000 0000 0000 0000 000000
2017-01-21 02:30:18,0.76,8.00,1.00,15.13,19.44,23.06,15.02,53.47,1013.43,2057.98,1634.97,1622.60,1819.94,600.09,610.48,14.08,0000 0000 0000 0000 000000
2017-01-21 02:35:19,0.74,8.04,1.00,15.11,19.42,23.04,14.97,53.33,1013.35,2057.98,1629.97,1618.49,1815.44,600.25,610.70,14.13,0000 0000 0000 0000 000000
2017-01-21 02:40:20,0.72,8.07,1.00,15.09,19.40,23.00,15.02,53.64,1013.13,2057.99,1624.89,1614.63,1811.02,599.83,610.11,14.18,0000 0000 0000 0000 000000
2017-01-21 02:45:22,0.77,8.11,1.00,15.09,19.38,22.99,14.99,53.70,1013.31,2057.99,1619.66,1610.54,1806.28,600.13,610.56,14.23,0000 0000 0000 0000 000000
2017-01-21 02:50:23,0.89,8.15,1.00,15.06,19.36,22.97,14.98,53.70,1013.17,2057.99,1614.03,1605.75,1801.03,599.93,610.26,14.28,0000 0000 0000 0000 000000
2017-01-21 02:55:24,0.76,8.20,1.00,15.04,19.34,22.95,15.07,53.68,1012.90,2057.99,1608.49,1601.42,1796.03,600.15,610.41,14.33,0000 0000 0000 0000 000000
2017-01-21 03:00:26,0.80,8.24,1.00,15.02,19.32,22.90,15.09,53.85,1012.69,2058.02,1603.03,1597.48,1791.37,600.73,610.94,14.38,0000 0000 0000 0000 000000
2017-01-21 03:05:27,0.94,8.28,1.00,15.00,19.29,22.88,15.04,53.98,1012.33,2058.03,1597.20,1592.70,1786.04,599.92,609.89,14.43,0000 0000 0000 0000 000000
2017-01-21 03:10:28,0.92,8.33,1.00,14.98,19.28,22.88,15.03,54.08,1012.20,2058.14,1590.87,1587.82,1780.37,599.81,609.84,14.48,0000 0000 0000 0000 000000
2017-01-21 03:15:29,0.87,8.37,1.00,14.97,19.25,22.87,14.97,53.73,1012.28,2058.68,1585.56,1583.35,1775.48,599.65,609.79,14.53,0000 0000 0000 0000 000000
2017-01-21 03:20:30,0.84,8.41,1.00,14.93,19.23,22.83,15.01,54.16,1012.04,2058.81,1579.97,1579.29,1770.58,600.31,610.30,14.58,0000 0000 0000 0000 000000
2017-01-21 03:25:32,0.92,8.46,1.00,14.93,19.21,22.80,14.97,54.64,1011.74,2058.96,1574.09,1574.79,1765.31,599.76,609.57,14.63,0000 0000 0000 0000 000000
2017-01-21 03:30:33,1.13,8.52,1.00,14.92,19.19,22.77,15.06,54.87,1011.40,2058.98,1566.45,1569.03,1758.86,600.26,609.87,14.68,0000 0000 0000 0000 000000
2017-01-21 03:35:34,0.76,8.56,1.00,14.90,19.17,22.74,15.08,54.38,1011.39,2058.99,1561.31,1564.82,1754.19,600.36,609.89,14.73,0000 0000 0000 0000 000000
2017-01-21 03:40:36,0.80,8.60,1.00,14.85,19.15,22.75,15.03,54.23,1011.55,2058.99,1556.19,1560.90,1749.67,600.34,610.13,14.78,0000 0000 0000 0000 000000
2017-01-21 03:45:37,0.70,8.64,1.00,14.81,19.13,22.72,14.96,54.08,1011.62,2058.99,1551.41,1557.19,1745.38,599.88,609.84,14.83,0000 0000 0000 0000 000000
2017-01-21 03:50:38,0.74,8.67,1.00,14.79,19.11,22.72,14.99,54.17,1011.69,2058.99,1546.71,1553.64,1741.25,599.83,609.84,14.88,0000 0000 0000 0000 000000
2017-01-21 03:55:40,0.77,8.71,1.00,14.75,19.09,22.68,15.00,53.92,1011.72,2059.03,1541.83,1549.66,1736.65,599.91,610.07,14.93,0000 0000 0000 0000 000000
2017-01-21 04:00:41,0.68,8.75,1.00,14.74,19.07,22.68,15.07,53.74,1011.82,2059.03,1537.23,1546.19,1732.62,600.23,610.49,14.98,0000 0000 0000 0000 000000
2017-01-21 04:05:42,0.66,8.78,1.00,14.73,19.04,22.66,15.00,53.41,1011.83,2059.05,1532.88,1542.97,1728.84,600.23,610.52,15.03,0000 0000 0000 0000 000000
2017-01-21 04:10:43,0.66,8.82,1.00,14.74,19.03,22.67,15.00,53.53,1011.80,2059.07,1528.42,1539.88,1725.32,600.02,610.34,15.08,0000 0000 0000 0000 000000
2017-01-21 04:15:45,0.70,8.85,1.00,14.75,19.01,22.64,15.06,53.98,1011.70,2059.37,1523.90,1536.86,1721.71,600.16,610.21,15.13,0000 0000 0000 0000 000000
2017-01-21 04:20:46,0.90,8.89,1.00,14.76,18.99,22.60,15.06,54.26,1011.71,2059.88,1518.92,1533.30,1717.25,600.28,610.42,15.18,0000 0000 0000 0000 000000
2017-01-21 04:25:48,0.96,8.93,1.00,14.75,18.97,22.55,14.98,53.99,1011.86,2059.95,1513.24,1528.42,1711.86,599.88,610.11,15.23,0000 0000 0000 0000 000000
2017-01-21 04:30:49,0.95,8.99,1.00,14.72,18.96,22.56,15.00,54.01,1012.22,2059.96,1507.99,1523.12,1706.07,599.64,610.17,15.28,0000 0000 0000 0000 000000
2017-01-21 04:35:51,0.81,9.03,1.00,14.72,18.94,22.51,15.05,53.36,1012.57,2059.96,1503.26,1518.79,1701.24,600.42,611.03,15.33,0000 0000 0000 0000 000000
2017-01-21 04:40:52,0.74,9.07,1.00,14.73,18.93,22.50,15.05,53.13,1012.82,2059.98,1498.75,1515.03,1697.03,600.04,610.92,15.38,0000 0000 0000 0000 000000
2017-01-21 04:45:53,0.68,9.10,1.00,14.73,18.92,22.48,14.92,53.08,1013.12,2059.98,1494.56,1511.78,1693.24,599.57,610.64,15.43,0000 0000 0000 0000 000000
2017-01-21 04:50:55,0.65,9.14,1.00,14.74,18.90,22.45,15.05,52.91,1013.35,2059.98,1490.33,1508.67,1689.64,599.74,611.00,15.48,0000 0000 0000 0000 000000
2017-01-21 04:55:56,0.61,9.17,1.00,14.76,18.89,22.45,15.00,52.95,1013.72,2059.98,1486.31,1505.88,1686.37,599.90,611.33,15.53,0000 0000 0000 0000 000000
2017-01-21 05:00:58,0.57,9.20,1.00,14.80,18.89,22.43,15.05,53.20,1013.78,2059.99,1482.62,1503.18,1683.25,600.00,611.29,15.58,0000 0000 0000 0000 000000
2017-01-21 05:05:59,0.61,9.23,1.00,14.84,18.89,22.42,15.02,53.01,1013.73,2059.99,1478.92,1500.40,1680.13,600.06,611.17,15.63,0000 0000 0000 0000 000000
2017-01-21 05:11:00,0.56,9.26,1.00,14.85,18.87,22.34,14.98,53.10,1013.70,2059.99,1475.26,1497.69,1677.06,600.32,611.48,15.68,0000 0000 0000 0000 000000
2017-01-21 05:16:02,0.61,9.29,1.00,14.90,18.87,22.41,15.04,53.05,1013.69,2059.99,1471.58,1494.99,1673.83,600.21,611.20,15.74,0000 0000 0000 0000 000000
2017-01-21 05:21:03,0.59,9.32,1.00,14.94,18.88,22.34,15.01,52.94,1013.52,2059.99,1467.93,1492.29,1670.71,600.12,611.02,15.79,0000 0000 0000 0000 000000
2017-01-21 05:26:05,0.65,9.35,1.00,14.96,18.89,22.41,15.05,52.86,1013.49,2059.99,1464.00,1489.43,1667.43,600.18,611.04,15.84,0000 0000 0000 0000 000000
2017-01-21 05:31:06,0.64,9.38,1.00,15.00,18.89,22.50,14.97,52.57,1013.05,2059.99,1459.92,1486.58,1664.09,599.92,610.31,15.89,0000 0000 0000 0000 000000
2017-01-21 05:36:08,0.63,9.41,1.00,15.07,18.89,22.48,14.95,52.75,1012.48,2059.99,1455.82,1483.79,1660.85,600.00,609.98,15.94,0000 0000 0000 0000 000000
2017-01-21 05:41:09,0.68,9.45,1.00,15.13,18.91,22.46,14.95,53.28,1011.76,2059.98,1451.60,1480.85,1657.41,599.82,609.16,15.99,0000 0000 0000 0000 000000
2017-01-21 05:46:10,1.11,9.49,1.00,15.14,18.92,22.55,15.02,54.18,1011.12,2059.99,1445.78,1476.41,1652.32,599.71,608.71,16.04,0000 0000 0000 0000 000000
2017-01-21 05:51:11,0.95,9.55,1.00,15.17,18.93,22.60,15.01,54.04,1010.83,2059.98,1439.90,1471.68,1646.78,599.90,608.67,16.09,0000 0000 0000 0000 000000
2017-01-21 05:56:13,0.79,9.59,1.00,15.19,18.94,22.62,15.01,54.20,1010.65,2059.98,1434.66,1468.18,1642.42,600.00,608.62,16.14,0000 0000 0000 0000 000000
2017-01-21 06:01:14,0.91,9.63,1.00,15.20,18.95,22.64,14.95,53.94,1010.23,2059.97,1429.25,1464.24,1637.81,599.71,607.90,16.19,0000 0000 0000 0000 000000
2017-01-21 06:06:16,0.91,9.68,1.00,15.18,18.97,22.65,14.98,54.73,1010.25,2059.98,1423.75,1460.48,1633.39,600.27,608.65,16.24,0000 0000 0000 0000 000000
2017-01-21 06:11:17,0.88,9.72,1.00,15.17,18.98,22.70,15.02,54.48,1010.11,2059.97,1418.75,1456.68,1628.92,600.16,608.46,16.29,0000 0000 0000 0000 000000
2017-01-21 06:16:19,0.96,9.77,1.00,15.17,18.99,22.74,14.95,54.38,1009.65,2059.97,1412.89,1452.77,1624.21,599.98,607.92,16.34,0000 0000 0000 0000 000000
2017-01-21 06:21:20,1.02,9.82,1.00,15.14,19.00,22.75,14.94,54.60,1009.36,2059.99,1406.54,1448.29,1618.96,600.03,607.94,16.39,0000 0000 0000 0000 000000
2017-01-21 06:26:21,0.92,9.87,1.00,15.15,19.02,22.78,14.98,55.11,1009.31,2059.99,1401.13,1444.33,1614.31,599.95,607.93,16.44,0000 0000 0000 0000 000000
2017-01-21 06:31:23,1.01,9.92,1.00,15.15,19.02,22.80,14.99,54.87,1009.17,2059.99,1395.33,1440.03,1609.24,600.14,607.85,16.49,0000 0000 0000 0000 000000
2017-01-21 06:36:25,0.88,9.96,1.00,15.13,19.04,22.79,14.97,55.20,1008.63,2059.99,1390.19,1436.35,1604.94,599.92,607.50,16.54,0000 0000 0000 0000 000000
2017-01-21 06:41:26,1.15,10.02,1.00,15.10,19.04,22.79,15.02,55.78,1008.38,2059.99,1383.76,1431.93,1599.58,600.22,607.70,16.59,0000 0000 0000 0000 000000
2017-01-21 06:46:28,1.34,10.08,1.00,15.07,19.04,22.83,15.00,56.40,1008.31,2059.99,1376.48,1426.21,1593.15,600.21,607.63,16.64,0000 0000 0000 0000 000000
2017-01-21 06:51:29,1.32,10.15,1.00,15.04,19.04,22.80,15.02,55.98,1008.26,2059.99,1369.27,1420.53,1586.58,600.27,607.86,16.69,0000 0000 0000 0000 000000
2017-01-21 06:56:30,1.15,10.21,1.00,14.99,19.04,22.79,15.03,56.10,1008.29,2060.00,1362.61,1415.76,1580.91,600.06,607.66,16.74,0000 0000 0000 0000 000000
2017-01-21 07:01:32,1.22,10.27,1.00,14.95,19.03,22.77,15.00,55.92,1008.32,2060.05,1355.70,1410.58,1574.94,599.83,607.32,16.79,0000 0000 0000 0000 000000
2017-01-21 07:06:33,1.12,10.33,1.00,14.91,19.02,22.60,15.02,55.99,1008.34,2060.10,1349.65,1406.15,1569.70,600.34,608.16,16.84,0000 0000 0000 0000 000000
2017-01-21 07:11:34,1.40,10.39,1.00,14.85,19.01,22.62,15.03,56.24,1008.34,2060.58,1342.82,1400.68,1563.38,600.24,608.17,16.89,0000 0000 0000 0000 000000
2017-01-21 07:16:36,1.12,10.46,1.00,14.82,18.99,22.57,14.98,55.85,1008.35,2060.91,1336.98,1395.85,1557.90,599.97,607.95,16.94,0000 0000 0000 0000 000000
2017-01-21 07:21:37,1.14,10.51,1.00,14.76,18.97,22.59,15.02,55.89,1008.33,2060.98,1330.94,1391.23,1552.58,599.66,607.74,16.99,0000 0000 0000 0000 000000
2017-01-21 07:26:38,1.07,10.57,1.00,14.73,18.95,22.57,15.03,56.11,1008.31,2060.99,1325.28,1386.80,1547.44,599.85,607.98,17.04,0000 0000 0000 0000 000000
2017-01-21 07:31:40,0.98,10.62,1.00,14.66,18.93,22.58,14.94,55.98,1008.24,2060.99,1320.07,1382.92,1542.94,599.80,608.02,17.09,0000 0000 0000 0000 000000
2017-01-21 07:36:41,0.76,10.66,1.00,14.60,18.90,22.55,15.02,55.74,1008.30,2061.01,1315.75,1379.58,1539.06,599.99,608.48,17.14,0000 0000 0000 0000 000000
2017-01-21 07:41:42,0.69,10.70,1.00,14.55,18.87,22.51,15.00,55.78,1008.34,2061.03,1312.05,1376.96,1535.99,599.98,608.49,17.19,0000 0000 0000 0000 000000
2017-01-21 07:46:44,0.76,10.73,1.00,14.53,18.83,22.46,15.01,55.70,1008.35,2061.20,1308.28,1374.07,1532.91,600.16,608.75,17.24,0000 0000 0000 0000 000000
2017-01-21 07:51:45,0.73,10.77,1.00,14.49,18.79,22.41,15.00,55.42,1008.34,2061.48,1304.69,1371.27,1529.77,600.13,608.63,17.29,0000 0000 0000 0000 000000
2017-01-21 07:56:46,0.80,10.81,1.00,14.46,18.74,22.38,14.93,55.46,1008.31,2061.87,1300.72,1368.36,1526.33,599.41,608.15,17.34,0000 0000 0000 0000 000000
2017-01-21 08:01:48,0.73,10.85,1.00,14.41,18.69,22.35,14.98,55.52,1008.11,2061.97,1296.97,1365.47,1522.96,600.34,609.04,17.39,0000 0000 0000 0000 000000
2017-01-21 08:06:49,0.70,10.89,1.00,14.38,18.64,22.22,14.93,55.41,1007.94,2061.99,1293.54,1362.56,1519.96,599.79,608.32,17.44,0000 0000 0000 0000 000000
2017-01-21 08:11:51,0.71,10.92,1.00,14.35,18.58,22.14,15.00,55.35,1008.16,2061.99,1290.03,1359.75,1516.79,600.16,609.11,17.49,0000 0000 0000 0000 000000
2017-01-21 08:16:52,0.65,10.96,1.00,14.31,18.53,22.08,14.96,55.09,1008.31,2062.08,1286.79,1357.04,1513.92,599.89,608.84,17.54,0000 0000 0000 0000 000000
2017-01-21 08:21:53,0.77,10.99,1.00,14.28,18.48,22.05,15.04,55.14,1008.31,2062.40,1283.17,1354.29,1510.80,600.33,609.40,17.59,0000 0000 0000 0000 000000
2017-01-21 08:26:54,0.80,11.03,1.00,14.24,18.43,22.03,15.07,55.27,1008.32,2062.87,1279.62,1351.40,1507.40,600.28,609.53,17.64,0000 0000 0000 0000 000000
2017-01-21 08:31:56,0.93,11.08,1.00,14.22,18.38,21.96,15.08,55.42,1008.40,2062.98,1275.30,1347.84,1503.49,600.36,609.74,17.69,0000 0000 0000 0000 000000
2017-01-21 08:36:57,0.56,11.11,1.00,14.18,18.33,21.94,14.94,54.98,1008.46,2062.99,1272.21,1345.22,1500.56,599.61,608.99,17.74,0000 0000 0000 0000 000000
2017-01-21 08:41:58,0.61,11.14,1.00,14.14,18.28,21.86,14.98,55.03,1008.44,2062.99,1269.22,1343.00,1497.90,600.01,609.62,17.79,0000 0000 0000 0000 000000
2017-01-21 08:47:00,0.63,11.17,1.00,14.11,18.23,21.79,14.97,54.97,1008.34,2063.07,1266.15,1340.75,1495.20,599.76,609.26,17.84,0000 0000 0000 0000 000000
2017-01-21 08:52:01,0.70,11.21,1.00,14.11,18.18,21.73,15.04,55.12,1008.44,2063.33,1263.13,1338.19,1492.50,600.24,609.86,17.89,0000 0000 0000 0000 000000
2017-01-21 08:57:02,0.65,11.24,1.00,14.05,18.14,21.70,15.00,55.08,1008.70,2063.81,1260.21,1335.70,1489.87,599.97,609.77,17.94,0000 0000 0000 0000 000000
2017-01-21 09:02:04,0.61,11.27,1.00,14.03,18.09,21.64,14.95,54.97,1008.72,2063.96,1257.39,1333.38,1487.36,599.97,609.86,17.99,0000 0000 0000 0000 000000
2017-01-21 09:07:05,0.62,11.30,1.00,14.02,18.05,21.65,14.97,55.00,1008.62,2063.99,1254.29,1330.99,1484.65,599.86,609.81,18.04,0000 0000 0000 0000 000000
2017-01-21 09:12:07,0.61,11.33,1.00,13.98,18.01,21.62,15.03,55.17,1008.54,2063.99,1251.18,1328.70,1482.04,599.74,609.68,18.09,0000 0000 0000 0000 000000
2017-01-21 09:17:08,0.67,11.37,1.00,14.00,17.97,21.54,14.96,55.07,1008.70,2064.02,1247.90,1326.32,1479.26,599.82,609.79,18.14,0000 0000 0000 0000 000000
2017-01-21 09:22:09,0.59,11.40,1.00,13.98,17.93,21.51,14.97,54.77,1008.78,2064.07,1244.80,1324.22,1476.60,599.70,609.72,18.19,0000 0000 0000 0000 000000
2017-01-21 09:27:11,0.71,11.43,1.00,13.97,17.90,21.44,15.07,54.90,1008.80,2064.41,1241.68,1322.02,1474.09,599.96,609.98,18.24,0000 0000 0000 0000 000000
2017-01-21 09:32:12,0.67,11.47,1.00,13.97,17.87,21.47,15.04,55.28,1008.73,2064.92,1238.45,1319.77,1471.70,599.86,609.88,18.29,0000 0000 0000 0000 000000
2017-01-21 09:37:14,0.65,11.50,1.00,13.96,17.83,21.44,14.99,55.17,1008.78,2064.99,1235.07,1317.61,1468.88,599.58,609.71,18.34,0000 0000 0000 0000 000000
2017-01-21 09:42:15,0.65,11.54,1.00,13.95,17.80,21.44,15.09,55.09,1008.66,2064.99,1231.80,1315.25,1466.11,600.23,610.42,18.40,0000 0000 0000 0000 000000
2017-01-21 09:47:17,0.66,11.57,1.00,13.92,17.77,21.43,14.95,55.01,1008.57,2064.99,1228.79,1312.81,1463.35,599.81,609.83,18.45,0000 0000 0000 0000 000000
2017-01-21 09:52:18,0.75,11.60,1.00,13.89,17.74,21.35,14.99,55.41,1008.63,2065.02,1225.41,1310.15,1460.36,599.93,609.98,18.50,0000 0000 0000 0000 000000
2017-01-21 09:57:20,0.80,11.64,1.00,13.90,17.72,21.33,15.04,55.38,1008.71,2065.10,1221.80,1307.07,1457.17,600.08,610.24,18.55,0000 0000 0000 0000 000000
2017-01-21 10:02:21,0.75,11.68,1.00,13.90,17.69,21.34,15.07,54.93,1008.60,2065.37,1218.44,1304.22,1454.22,600.15,610.11,18.60,0000 0000 0000 0000 000000
2017-01-21 10:07:23,0.80,11.72,1.00,13.92,17.67,21.32,15.01,54.99,1008.75,2065.80,1215.08,1301.53,1451.31,600.03,610.09,18.65,0000 0000 0000 0000 000000
2017-01-21 10:12:24,0.71,11.76,1.00,13.91,17.65,21.31,15.00,55.27,1008.58,2065.93,1211.93,1298.86,1448.32,600.12,610.05,18.70,0000 0000 0000 0000 000000
2017-01-21 10:17:25,0.61,11.79,1.00,13.91,17.63,21.32,14.99,54.98,1008.71,2065.96,1209.03,1296.44,1445.74,600.01,610.14,18.75,0000 0000 0000 0000 000000
2017-01-21 10:22:26,0.66,11.82,1.00,13.91,17.61,21.33,14.98,54.72,1008.62,2065.99,1206.12,1294.01,1443.17,599.97,610.04,18.80,0000 0000 0000 0000 000000
2017-01-21 10:27:28,0.72,11.86,1.00,13.91,17.59,21.30,15.07,54.88,1008.37,2065.99,1202.96,1291.37,1440.28,599.96,609.84,18.85,0000 0000 0000 0000 000000
2017-01-21 10:32:29,0.82,11.90,1.00,13.93,17.57,21.27,15.00,55.13,1008.33,2065.99,1199.40,1288.24,1436.99,599.93,609.79,18.90,0000 0000 0000 0000 000000
2017-01-21 10:37:30,0.72,11.94,1.00,13.96,17.56,21.27,15.06,55.03,1008.37,2065.99,1196.33,1285.39,1433.93,599.84,609.64,18.95,0000 0000 0000 0000 000000
2017-01-21 10:42:32,0.54,11.97,1.00,13.96,17.54,21.29,15.03,54.93,1008.40,2066.00,1193.95,1283.19,1431.42,600.29,610.06,19.00,0000 0000 0000 0000 000000
2017-01-21 10:47:33,0.68,12.00,1.00,13.96,17.53,21.26,14.94,55.23,1008.29,2066.01,1190.87,1281.04,1429.05,599.97,609.75,19.05,0000 0000 0000 0000 000000
2017-01-21 10:52:34,0.63,12.03,1.00,13.95,17.52,21.25,15.00,54.96,1008.13,2066.01,1187.84,1278.73,1426.47,599.87,609.51,19.10,0000 0000 0000 0000 000000
2017-01-21 10:57:35,0.70,12.06,1.00,13.95,17.50,21.25,15.00,55.10,1008.09,2066.01,1184.94,1276.19,1423.65,600.15,609.84,19.15,0000 0000 0000 0000 000000
2017-01-21 11:02:36,0.62,12.10,1.00,13.95,17.49,21.28,15.00,54.88,1008.42,2066.02,1182.15,1273.63,1421.03,599.88,609.87,19.20,0000 0000 0000 0000 000000
2017-01-21 11:07:37,0.70,12.13,1.00,13.94,17.47,21.21,14.95,54.79,1008.77,2066.10,1179.18,1271.39,1418.32,599.73,609.78,19.25,0000 0000 0000 0000 000000
2017-01-21 11:12:38,0.54,12.16,1.00,13.95,17.47,21.28,14.99,54.54,1008.99,2066.16,1176.72,1269.26,1416.03,599.83,609.92,19.30,0000 0000 0000 0000 000000
2017-01-21 11:17:40,0.56,12.19,1.00,13.95,17.46,21.27,15.02,54.56,1009.19,2066.17,1174.24,1267.39,1413.71,600.23,610.58,19.35,0000 0000 0000 0000 000000
2017-01-21 11:22:41,0.61,12.22,1.00,13.97,17.44,21.22,15.01,54.36,1009.32,2066.18,1171.49,1265.28,1411.31,599.93,610.35,19.40,0000 0000 0000 0000 000000
2017-01-21 11:27:42,0.64,12.25,1.00,13.99,17.44,21.20,14.98,54.30,1009.28,2066.11,1168.64,1263.22,1408.94,599.57,609.83,19.45,0000 0000 0000 0000 000000
2017-01-21 11:32:44,0.57,12.28,1.00,14.00,17.44,21.22,14.95,54.22,1009.45,2066.16,1165.93,1261.17,1406.67,599.80,610.25,19.50,0000 0000 0000 0000 000000
2017-01-21 11:37:45,0.55,12.31,1.00,14.03,17.44,21.23,15.04,54.25,1009.56,2066.10,1163.35,1259.29,1404.49,599.94,610.27,19.55,0000 0000 0000 0000 000000
2017-01-21 11:42:46,0.62,12.34,1.00,14.06,17.42,21.22,15.01,54.31,1009.30,2066.13,1160.64,1257.35,1402.12,600.06,610.24,19.60,0000 0000 0000 0000 000000
2017-01-21 11:47:48,0.59,12.37,1.00,14.09,17.42,21.18,15.00,54.53,1009.28,2066.08,1157.89,1255.37,1399.79,600.22,610.31,19.65,0000 0000 0000 0000 000000
2017-01-21 11:52:49,0.61,12.40,1.00,14.12,17.42,21.18,15.01,54.52,1009.29,2066.08,1155.14,1253.23,1397.49,600.04,610.24,19.70,0000 0000 0000 0000 000000
2017-01-21 11:57:50,0.70,12.43,1.00,14.13,17.42,21.20,15.00,54.56,1009.28,2066.06,1152.04,1250.88,1395.03,600.02,610.04,19.75,0000 0000 0000 0000 000000
2017-01-21 12:02:51,0.66,12.47,1.00,14.18,17.42,21.20,14.90,54.33,1009.31,2066.03,1148.97,1248.52,1392.56,599.81,609.68,19.80,0000 0000 0000 0000 000000
2017-01-21 12:07:53,0.61,12.50,1.00,14.21,17.42,21.22,15.00,54.42,1009.34,2066.03,1146.26,1246.45,1390.38,600.22,610.07,19.85,0000 0000 0000 0000 000000
2017-01-21 12:12:54,0.60,12.53,1.00,14.24,17.42,21.30,14.90,54.52,1009.57,2066.05,1143.56,1244.46,1388.09,600.19,610.12,19.90,0000 0000 0000 0000 000000
2017-01-21 12:17:55,0.56,12.56,1.00,14.25,17.44,21.31,15.04,54.63,1009.73,2066.02,1141.07,1242.65,1385.91,600.19,610.16,19.95,0000 0000 0000 0000 000000
2017-01-21 12:22:56,0.53,12.59,1.00,14.28,17.44,21.30,14.97,54.36,1010.06,2066.01,1138.70,1240.84,1383.83,600.04,610.24,20.00,0000 0000 0000 0000 000000
2017-01-21 12:27:58,0.55,12.62,1.00,14.32,17.44,21.34,14.98,54.30,1010.28,2066.00,1136.32,1239.01,1381.70,599.95,610.16,20.05,0000 0000 0000 0000 000000
2017-01-21 12:32:59,0.61,12.65,1.00,14.37,17.46,21.35,14.93,54.01,1010.33,2066.00,1134.02,1236.79,1379.30,599.71,609.82,20.10,0000 0000 0000 0000 000000
2017-01-21 12:38:01,0.57,12.67,1.00,14.41,17.47,21.39,14.93,54.04,1010.62,2065.99,1131.74,1234.78,1377.05,600.04,610.31,20.15,0000 0000 0000 0000 000000
2017-01-21 12:43:02,0.65,12.71,1.00,14.47,17.48,21.45,15.05,53.82,1010.77,2065.96,1129.18,1232.41,1374.45,600.27,610.35,20.20,0000 0000 0000 0000 000000
2017-01-21 12:48:03,0.53,12.74,1.00,14.52,17.49,21.42,15.00,53.67,1010.87,2065.44,1126.62,1230.26,1372.05,600.14,610.23,20.25,0000 0000 0000 0000 000000
2017-01-21 12:53:04,0.78,12.77,1.00,14.58,17.52,21.45,14.99,53.53,1011.17,2065.16,1123.35,1227.82,1369.23,600.19,610.32,20.30,0000 0000 0000 0000 000000